Location: ???????
(55.7027°N, 37.3832°E)
Time: 11:17:51
(UTC+00:00)

Cosmos 1656 - Pass Details

Date: 14 April 2026
Orbit: 798 x 846 km, 71.1° (Epoch: 10 May)

Event Time Altitude Azimuth Distance (km) Brightness Sun altitude
Rises 20:15:13 0° 325° (NW) 3,317 8.1 -22.8°
Reaches altitude 10° 20:17:44 10° 331° (NNW) 2,385 7.1 -22.9°
Maximum altitude 20:22:59 47° 45° (NE) 1,064 4.3 -23.1°
Enters shadow 20:25:10 31° 98° (E) 1,389 4.6 -23.2°
